Location: Asheville, NC
(35.6000°N, 82.5500°W)
Time: 14:54:51
(UTC-05:00)

Vanguard 2 - Pass Details

Date: 12 December 2017
Orbit: 552 x 2940 km, 32.9° (Epoch: 16 January)

Event Time Altitude Azimuth Distance (km) Brightness Sun altitude
Rises 13:32:20 0° 210° (SSW) 5,544 13.1 29.1°
Reaches altitude 10° 13:37:51 10° 195° (SSW) 4,039 12.9 28.7°
Maximum altitude 13:44:12 19° 156° (SSE) 2,778 11.2 28.3°
Drops below altitude 10° 13:48:58 10° 114° (ESE) 2,897 10.6 27.9°
Sets 13:52:02 0° 96° (E) 3,532 10.8 27.7°
